| time (UTC) | temp F | wind direction | speed MPH | gust MPH | rain 1hr in | rain 24hr in | rain mn in | humidity % | barometer mb |
| 20260831022058 | 72 | 325 | 1.0 | 1.0 | 0.00 | 0.00 | 0.00 | 50 | 1030.9 |
| 20260831021557 | 71 | 261 | 0.0 | 1.0 | 0.00 | 0.00 | 0.00 | 51 | 1031.2 |
| 20260831021053 | 70 | 253 | 1.0 | 1.0 | 0.00 | 0.00 | 0.00 | 50 | 1031.2 |
| 20260831020548 | 71 | 309 | 1.0 | 1.0 | 0.00 | 0.00 | 0.00 | 49 | 1031.2 |
| 20260831020043 | 72 | 316 | 0.0 | 0.0 | 0.00 | 0.00 | 0.00 | 53 | 1031.3 |
| 20260831015539 | 71 | 283 | 0.0 | 1.0 | 0.00 | 0.00 | 0.00 | 52 | 1031.4 |
| 20260831015033 | 69 | 297 | 0.0 | 0.0 | 0.00 | 0.00 | 0.00 | 55 | 1031.7 |
| 20260831014528 | 70 | 220 | 2.0 | 2.0 | 0.00 | 0.00 | 0.00 | 50 | 1031.8 |
| 20260831014024 | 70 | 343 | 1.0 | 1.0 | 0.00 | 0.00 | 0.00 | 53 | 1031.9 |
| 20260831013519 | 69 | 260 | 0.0 | 1.0 | 0.00 | 0.00 | 0.00 | 54 | 1031.9 |
| 20260831013014 | 68 | 199 | 2.0 | 2.0 | 0.00 | 0.00 | 0.00 | 54 | 1031.9 |
| 20260831012509 | 68 | 335 | 0.0 | 1.0 | 0.00 | 0.00 | 0.00 | 56 | 1032.1 |
| 20260831012008 | 67 | 63 | 1.0 | 1.0 | 0.00 | 0.00 | 0.00 | 56 | 1032.0 |
| 20260831011503 | 66 | 106 | 2.0 | 2.0 | 0.00 | 0.00 | 0.00 | 58 | 1032.4 |
| 20260831010959 | 68 | 10 | 2.0 | 2.0 | 0.00 | 0.00 | 0.00 | 57 | 1032.5 |
| 20260831010458 | 66 | 321 | 0.0 | 0.0 | 0.00 | 0.00 | 0.00 | 59 | 1032.5 |
| 20260831005949 | 66 | 39 | 1.0 | 1.0 | 0.00 | 0.00 | 0.00 | 58 | 1032.5 |
| 20260831005445 | 65 | 245 | 1.0 | 1.0 | 0.00 | 0.00 | 0.00 | 59 | 1032.4 |
| 20260831004944 | 68 | 316 | 1.0 | 2.0 | 0.00 | 0.00 | 0.00 | 55 | 1032.5 |
| 20260831004440 | 66 | 343 | 0.0 | 0.0 | 0.00 | 0.00 | 0.00 | 58 | 1032.8 |
| 20260831003936 | 65 | 101 | 1.0 | 1.0 | 0.00 | 0.00 | 0.00 | 57 | 1032.3 |
| 20260831003431 | 66 | 6 | 1.0 | 2.0 | 0.00 | 0.00 | 0.00 | 54 | 1032.6 |
| 20260831002931 | 66 | 10 | 0.0 | 1.0 | 0.00 | 0.00 | 0.00 | 55 | 1032.8 |
| 20260831002430 | 64 | 347 | 1.0 | 1.0 | 0.00 | 0.00 | 0.00 | 57 | 1032.5 |
| 20260831001926 | 63 | 22 | 1.0 | 1.0 | 0.00 | 0.00 | 0.00 | 59 | 1032.5 |
| 20260831001421 | 62 | 11 | 2.0 | 2.0 | 0.00 | 0.00 | 0.00 | 61 | 1033.0 |
| 20260831000918 | 62 | 15 | 2.0 | 2.0 | 0.00 | 0.00 | 0.00 | 60 | 1032.8 |
| 20260831000413 | 60 | 306 | 1.0 | 1.0 | 0.00 | 0.00 | 0.00 | 62 | 1032.8 |
| 20260830235912 | 61 | 327 | 0.0 | 0.0 | 0.00 | 0.00 | 0.00 | 60 | 1032.8 |
| 20260830235407 | 60 | 232 | 2.0 | 2.0 | 0.00 | 0.00 | 0.00 | 60 | 1033.0 |
| 20260830234902 | 60 | 227 | 2.0 | 2.0 | 0.00 | 0.00 | 0.00 | 62 | 1032.9 |
| 20260830234357 | 60 | 255 | 1.0 | 1.0 | 0.00 | 0.00 | 0.00 | 61 | 1033.1 |
| 20260830233853 | 60 | 256 | 1.0 | 1.0 | 0.00 | 0.00 | 0.00 | 64 | 1032.9 |
| 20260830233348 | 58 | 53 | 0.0 | 1.0 | 0.00 | 0.00 | 0.00 | 65 | 1033.2 |
| 20260830232844 | 58 | 1 | 1.0 | 1.0 | 0.00 | 0.00 | 0.00 | 67 | 1033.2 |
| 20260830232339 | 58 | 339 | 0.0 | 0.0 | 0.00 | 0.00 | 0.00 | 66 | 1033.1 |
| 20260830231836 | 57 | 2 | 0.0 | 0.0 | 0.00 | 0.00 | 0.00 | 68 | 1033.1 |
| 20260830231331 | 55 | 311 | 0.0 | 1.0 | 0.00 | 0.00 | 0.00 | 71 | 1033.1 |
| 20260830230830 | 55 | 32 | 1.0 | 1.0 | 0.00 | 0.00 | 0.00 | 70 | 1033.1 |
| 20260830230326 | 55 | 8 | 1.0 | 1.0 | 0.00 | 0.00 | 0.00 | 70 | 1033.2 |
| 20260830225826 | 55 | 4 | 0.0 | 0.0 | 0.00 | 0.00 | 0.00 | 71 | 1033.1 |
| 20260830225320 | 55 | 54 | 1.0 | 2.0 | 0.00 | 0.00 | 0.00 | 70 | 1033.2 |
| 20260830224815 | 55 | 331 | 0.0 | 0.0 | 0.00 | 0.00 | 0.00 | 70 | 1033.2 |
| 20260830224309 | 53 | 336 | 0.0 | 1.0 | 0.00 | 0.00 | 0.00 | 70 | 1033.2 |
| 20260830223806 | 54 | 283 | 0.0 | 1.0 | 0.00 | 0.00 | 0.00 | 71 | 1033.4 |
| 20260830223302 | 52 | 5 | 0.0 | 0.0 | 0.00 | 0.00 | 0.00 | 76 | 1033.1 |
| 20260830222801 | 51 | 349 | 0.0 | 0.0 | 0.00 | 0.00 | 0.00 | 76 | 1033.3 |
| 20260830222257 | 51 | 33 | 0.0 | 0.0 | 0.00 | 0.00 | 0.00 | 75 | 1033.1 |
| 20260830221752 | 51 | 17 | 1.0 | 1.0 | 0.00 | 0.00 | 0.00 | 77 | 1033.4 |
| 20260830221249 | 49 | 6 | 0.0 | 1.0 | 0.00 | 0.00 | 0.00 | 79 | 1033.2 |
| 20260830220744 | 49 | 339 | 0.0 | 1.0 | 0.00 | 0.00 | 0.00 | 81 | 1033.5 |
| 20260830220243 | 48 | 318 | 0.0 | 0.0 | 0.00 | 0.00 | 0.00 | 84 | 1033.4 |
| 20260830215741 | 47 | 0 | 0.0 | 0.0 | 0.00 | 0.00 | 0.00 | 89 | 1033.4 |
| 20260830215236 | 46 | 57 | 0.0 | 0.0 | 0.00 | 0.00 | 0.00 | 92 | 1033.3 |
| 20260830214731 | 45 | 325 | 0.0 | 1.0 | 0.00 | 0.00 | 0.00 | 98 | 1033.0 |
| 20260830214231 | 45 | 298 | 0.0 | 1.0 | 0.00 | 0.00 | 0.00 | 99 | 1033.1 |
| 20260830213730 | 44 | 89 | 1.0 | 1.0 | 0.00 | 0.00 | 0.00 | 99 | 1032.9 |
| 20260830213226 | 42 | 67 | 0.0 | 1.0 | 0.00 | 0.00 | 0.00 | 99 | 1033.1 |
| 20260830212721 | 40 | 317 | 0.0 | 0.0 | 0.00 | 0.00 | 0.00 | 99 | 1032.9 |
| 20260830212217 | 39 | 254 | 0.0 | 1.0 | 0.00 | 0.00 | 0.00 | 99 | 1032.9 |
| 20260830211712 | 38 | 289 | 0.0 | 0.0 | 0.00 | 0.00 | 0.00 | 99 | 1032.8 |
| 20260830211210 | 38 | 290 | 0.0 | 0.0 | 0.00 | 0.00 | 0.00 | 99 | 1032.6 |
| 20260830210707 | 38 | 274 | 0.0 | 0.0 | 0.00 | 0.00 | 0.00 | 99 | 1032.8 |
| 20260830210206 | 37 | 291 | 0.0 | 0.0 | 0.00 | 0.00 | 0.00 | 99 | 1032.6 |
| 20260830205703 | 36 | 288 | 0.0 | 0.0 | 0.00 | 0.00 | 0.00 | 99 | 1032.5 |
| 20260830205158 | 35 | 293 | 0.0 | 0.0 | 0.00 | 0.00 | 0.00 | 99 | 1032.4 |
| 20260830204658 | 35 | 285 | 0.0 | 0.0 | 0.00 | 0.00 | 0.00 | 99 | 1032.3 |
| 20260830204157 | 35 | 296 | 0.0 | 0.0 | 0.00 | 0.00 | 0.00 | 99 | 1032.3 |
| 20260830203653 | 34 | 289 | 0.0 | 0.0 | 0.00 | 0.00 | 0.00 | 99 | 1032.3 |
| 20260830203149 | 34 | 294 | 0.0 | 0.0 | 0.00 | 0.00 | 0.00 | 99 | 1032.1 |
| 20260830202648 | 35 | 292 | 0.0 | 0.0 | 0.00 | 0.00 | 0.00 | 99 | 1032.0 |
| 20260830202143 | 35 | 284 | 0.0 | 0.0 | 0.00 | 0.00 | 0.00 | 99 | 1031.9 |
| 20260830201643 | 35 | 279 | 0.0 | 0.0 | 0.00 | 0.00 | 0.00 | 99 | 1032.0 |
| 20260830201138 | 35 | 279 | 0.0 | 0.0 | 0.00 | 0.00 | 0.00 | 99 | 1032.0 |
| 20260830200634 | 36 | 277 | 0.0 | 0.0 | 0.00 | 0.00 | 0.00 | 99 | 1032.0 |
| 20260830200133 | 36 | 212 | 0.0 | 1.0 | 0.00 | 0.00 | 0.00 | 99 | 1031.8 |
| 20260830195628 | 34 | 262 | 0.0 | 0.0 | 0.00 | 0.00 | 0.00 | 99 | 1031.8 |
| 20260830195121 | 34 | 289 | 0.0 | 0.0 | 0.00 | 0.00 | 0.00 | 99 | 1031.7 |
| 20260830194620 | 34 | 289 | 0.0 | 0.0 | 0.00 | 0.00 | 0.00 | 99 | 1031.8 |
| 20260830194115 | 34 | 289 | 0.0 | 0.0 | 0.00 | 0.00 | 0.00 | 99 | 1031.7 |
| 20260830193614 | 35 | 289 | 0.0 | 0.0 | 0.00 | 0.00 | 0.00 | 99 | 1031.5 |
| 20260830193109 | 35 | 286 | 0.0 | 0.0 | 0.00 | 0.00 | 0.00 | 99 | 1031.4 |
| 20260830192605 | 35 | 282 | 0.0 | 0.0 | 0.00 | 0.00 | 0.00 | 99 | 1031.5 |
| 20260830192105 | 35 | 285 | 0.0 | 0.0 | 0.00 | 0.00 | 0.00 | 99 | 1031.4 |
| 20260830191600 | 35 | 272 | 0.0 | 0.0 | 0.00 | 0.00 | 0.00 | 99 | 1031.5 |
| 20260830191056 | 35 | 258 | 0.0 | 0.0 | 0.00 | 0.00 | 0.00 | 99 | 1031.4 |
| 20260830190551 | 35 | 279 | 0.0 | 0.0 | 0.00 | 0.00 | 0.00 | 99 | 1031.4 |
| 20260830190046 | 35 | 270 | 0.0 | 0.0 | 0.00 | 0.00 | 0.00 | 99 | 1031.6 |
| 20260830185539 | 36 | 292 | 0.0 | 0.0 | 0.00 | 0.00 | 0.00 | 99 | 1031.3 |
| 20260830185035 | 36 | 284 | 0.0 | 0.0 | 0.00 | 0.00 | 0.00 | 99 | 1031.4 |
| 20260830184534 | 35 | 282 | 0.0 | 0.0 | 0.00 | 0.00 | 0.00 | 99 | 1031.2 |
| 20260830184028 | 35 | 289 | 0.0 | 0.0 | 0.00 | 0.00 | 0.00 | 98 | 1031.4 |
| 20260830183523 | 36 | 289 | 0.0 | 0.0 | 0.00 | 0.00 | 0.00 | 98 | 1031.2 |
| 20260830183019 | 35 | 289 | 0.0 | 0.0 | 0.00 | 0.00 | 0.00 | 99 | 1031.0 |
| 20260830182514 | 35 | 294 | 0.0 | 0.0 | 0.00 | 0.00 | 0.00 | 99 | 1031.0 |
| 20260830182010 | 35 | 289 | 0.0 | 0.0 | 0.00 | 0.00 | 0.00 | 98 | 1031.3 |
| 20260830181506 | 36 | 289 | 0.0 | 0.0 | 0.00 | 0.00 | 0.00 | 98 | 1031.5 |
| 20260830181006 | 36 | 289 | 0.0 | 0.0 | 0.00 | 0.00 | 0.00 | 98 | 1031.3 |
| 20260830180500 | 36 | 289 | 0.0 | 0.0 | 0.00 | 0.00 | 0.00 | 98 | 1031.4 |
| 20260830175958 | 36 | 289 | 0.0 | 0.0 | 0.00 | 0.00 | 0.00 | 98 | 1031.5 |
| 20260830175458 | 36 | 289 | 0.0 | 0.0 | 0.00 | 0.00 | 0.00 | 98 | 1031.0 |
| 20260830174953 | 36 | 289 | 0.0 | 0.0 | 0.00 | 0.00 | 0.00 | 98 | 1031.4 |
| 20260830174449 | 36 | 285 | 0.0 | 0.0 | 0.00 | 0.00 | 0.00 | 98 | 1031.2 |
| 20260830173944 | 36 | 285 | 0.0 | 0.0 | 0.00 | 0.00 | 0.00 | 98 | 1031.3 |
| 20260830173440 | 36 | 279 | 0.0 | 0.0 | 0.00 | 0.00 | 0.00 | 98 | 1031.2 |
| 20260830172935 | 37 | 290 | 0.0 | 0.0 | 0.00 | 0.00 | 0.00 | 98 | 1031.4 |
| 20260830172432 | 37 | 289 | 0.0 | 0.0 | 0.00 | 0.00 | 0.00 | 98 | 1031.2 |
| 20260830171927 | 37 | 285 | 0.0 | 0.0 | 0.00 | 0.00 | 0.00 | 98 | 1031.3 |
| 20260830171422 | 37 | 282 | 0.0 | 0.0 | 0.00 | 0.00 | 0.00 | 98 | 1031.4 |
| 20260830170922 | 37 | 283 | 0.0 | 0.0 | 0.00 | 0.00 | 0.00 | 98 | 1031.3 |
| 20260830170417 | 38 | 278 | 0.0 | 0.0 | 0.00 | 0.00 | 0.00 | 98 | 1031.0 |
| 20260830165915 | 38 | 273 | 0.0 | 0.0 | 0.00 | 0.00 | 0.00 | 98 | 1031.4 |
| 20260830165411 | 38 | 265 | 0.0 | 0.0 | 0.00 | 0.00 | 0.00 | 98 | 1031.2 |
| 20260830164907 | 38 | 281 | 0.0 | 0.0 | 0.00 | 0.00 | 0.00 | 97 | 1031.3 |
| 20260830164403 | 38 | 284 | 0.0 | 0.0 | 0.00 | 0.00 | 0.00 | 97 | 1031.2 |
| 20260830163859 | 38 | 284 | 0.0 | 0.0 | 0.00 | 0.00 | 0.00 | 97 | 1031.4 |
| 20260830163356 | 38 | 282 | 0.0 | 0.0 | 0.00 | 0.00 | 0.00 | 97 | 1031.3 |
| 20260830162849 | 38 | 276 | 0.0 | 0.0 | 0.00 | 0.00 | 0.00 | 97 | 1031.5 |
| 20260830162345 | 38 | 292 | 0.0 | 0.0 | 0.00 | 0.00 | 0.00 | 97 | 1031.2 |
| 20260830161845 | 38 | 291 | 0.0 | 0.0 | 0.00 | 0.00 | 0.00 | 97 | 1031.4 |
| 20260830161344 | 38 | 275 | 0.0 | 0.0 | 0.00 | 0.00 | 0.00 | 97 | 1031.4 |
| 20260830160840 | 39 | 285 | 0.0 | 0.0 | 0.00 | 0.00 | 0.00 | 97 | 1031.4 |
| 20260830160335 | 39 | 281 | 0.0 | 0.0 | 0.00 | 0.00 | 0.00 | 97 | 1031.3 |
| 20260830155831 | 39 | 281 | 0.0 | 0.0 | 0.00 | 0.00 | 0.00 | 97 | 1031.6 |
| 20260830155327 | 39 | 283 | 0.0 | 0.0 | 0.00 | 0.00 | 0.00 | 97 | 1031.3 |
| 20260830154822 | 39 | 291 | 0.0 | 0.0 | 0.00 | 0.00 | 0.00 | 97 | 1031.4 |
| 20260830154317 | 39 | 281 | 0.0 | 0.0 | 0.00 | 0.00 | 0.00 | 97 | 1031.5 |
| 20260830153814 | 39 | 288 | 0.0 | 0.0 | 0.00 | 0.00 | 0.00 | 96 | 1031.6 |
| 20260830153309 | 39 | 256 | 0.0 | 0.0 | 0.00 | 0.00 | 0.00 | 96 | 1031.6 |
| 20260830152808 | 40 | 285 | 0.0 | 0.0 | 0.00 | 0.00 | 0.00 | 96 | 1031.2 |
| 20260830152305 | 40 | 277 | 0.0 | 0.0 | 0.00 | 0.00 | 0.00 | 96 | 1031.5 |
| 20260830151803 | 39 | 273 | 0.0 | 0.0 | 0.00 | 0.00 | 0.00 | 96 | 1031.2 |
| 20260830151302 | 39 | 293 | 0.0 | 0.0 | 0.00 | 0.00 | 0.00 | 96 | 1031.3 |
| 20260830150757 | 40 | 287 | 0.0 | 0.0 | 0.00 | 0.00 | 0.00 | 96 | 1031.3 |
| 20260830150256 | 40 | 275 | 0.0 | 0.0 | 0.00 | 0.00 | 0.00 | 96 | 1031.4 |
| 20260830145751 | 40 | 285 | 0.0 | 0.0 | 0.00 | 0.00 | 0.00 | 96 | 1031.5 |
| 20260830145247 | 40 | 277 | 0.0 | 0.0 | 0.00 | 0.00 | 0.00 | 96 | 1031.7 |
| 20260830144742 | 40 | 295 | 0.0 | 0.0 | 0.00 | 0.00 | 0.00 | 95 | 1031.7 |
| 20260830144238 | 40 | 287 | 0.0 | 0.0 | 0.00 | 0.00 | 0.00 | 95 | 1031.6 |
| 20260830143734 | 40 | 298 | 0.0 | 0.0 | 0.00 | 0.00 | 0.00 | 95 | 1031.6 |
| 20260830143232 | 41 | 298 | 0.0 | 0.0 | 0.00 | 0.00 | 0.00 | 95 | 1031.6 |
| 20260830142727 | 41 | 305 | 0.0 | 0.0 | 0.00 | 0.00 | 0.00 | 95 | 1031.5 |
| 20260830142222 | 41 | 278 | 0.0 | 0.0 | 0.00 | 0.00 | 0.00 | 95 | 1031.6 |
| 20260830141717 | 41 | 295 | 0.0 | 0.0 | 0.00 | 0.00 | 0.00 | 95 | 1031.6 |
| 20260830141213 | 42 | 296 | 0.0 | 0.0 | 0.00 | 0.00 | 0.00 | 94 | 1031.4 |
| 20260830140707 | 42 | 281 | 0.0 | 0.0 | 0.00 | 0.00 | 0.00 | 95 | 1031.7 |
| 20260830140202 | 42 | 273 | 0.0 | 0.0 | 0.00 | 0.00 | 0.00 | 94 | 1031.6 |
| 20260830135657 | 42 | 294 | 0.0 | 0.0 | 0.00 | 0.00 | 0.00 | 94 | 1031.7 |
| 20260830135152 | 42 | 305 | 0.0 | 0.0 | 0.00 | 0.00 | 0.00 | 94 | 1031.6 |
| 20260830134648 | 42 | 293 | 0.0 | 0.0 | 0.00 | 0.00 | 0.00 | 94 | 1031.7 |
| 20260830134143 | 42 | 292 | 0.0 | 0.0 | 0.00 | 0.00 | 0.00 | 93 | 1031.7 |
| 20260830133639 | 42 | 274 | 0.0 | 0.0 | 0.00 | 0.00 | 0.00 | 94 | 1031.7 |
| 20260830133134 | 42 | 301 | 0.0 | 0.0 | 0.00 | 0.00 | 0.00 | 93 | 1031.8 |
| 20260830132630 | 42 | 292 | 0.0 | 0.0 | 0.00 | 0.00 | 0.00 | 93 | 1031.6 |
| 20260830132125 | 43 | 284 | 0.0 | 0.0 | 0.00 | 0.00 | 0.00 | 92 | 1031.9 |
| 20260830131624 | 43 | 287 | 0.0 | 0.0 | 0.00 | 0.00 | 0.00 | 93 | 1031.7 |
| 20260830131119 | 43 | 294 | 0.0 | 0.0 | 0.00 | 0.00 | 0.00 | 92 | 1031.8 |
| 20260830130614 | 44 | 282 | 0.0 | 0.0 | 0.00 | 0.00 | 0.00 | 92 | 1031.8 |
| 20260830130109 | 44 | 292 | 0.0 | 0.0 | 0.00 | 0.00 | 0.00 | 91 | 1031.7 |
| 20260830125608 | 44 | 294 | 0.0 | 0.0 | 0.00 | 0.00 | 0.00 | 92 | 1031.7 |
| 20260830125108 | 44 | 287 | 0.0 | 0.0 | 0.00 | 0.00 | 0.00 | 92 | 1031.7 |
| 20260830124607 | 45 | 259 | 0.0 | 0.0 | 0.00 | 0.00 | 0.00 | 92 | 1031.5 |
| 20260830124102 | 45 | 262 | 0.0 | 0.0 | 0.00 | 0.00 | 0.00 | 92 | 1031.6 |
| 20260830123600 | 45 | 250 | 1.0 | 1.0 | 0.00 | 0.00 | 0.00 | 92 | 1031.9 |
| 20260830123055 | 44 | 100 | 0.0 | 1.0 | 0.00 | 0.00 | 0.00 | 92 | 1031.6 |
| 20260830122551 | 44 | 299 | 0.0 | 0.0 | 0.00 | 0.00 | 0.00 | 91 | 1031.6 |
| 20260830122047 | 44 | 281 | 0.0 | 0.0 | 0.00 | 0.00 | 0.00 | 91 | 1031.4 |
| 20260830121543 | 44 | 277 | 0.0 | 0.0 | 0.00 | 0.00 | 0.00 | 91 | 1031.5 |
| 20260830121042 | 44 | 277 | 0.0 | 0.0 | 0.00 | 0.00 | 0.00 | 90 | 1031.5 |
| 20260830120537 | 44 | 291 | 0.0 | 0.0 | 0.00 | 0.00 | 0.00 | 90 | 1031.6 |
| 20260830120035 | 45 | 291 | 0.0 | 0.0 | 0.00 | 0.00 | 0.00 | 89 | 1031.4 |
| 20260830115530 | 45 | 290 | 0.0 | 0.0 | 0.00 | 0.00 | 0.00 | 89 | 1031.6 |
| 20260830115025 | 45 | 290 | 0.0 | 0.0 | 0.00 | 0.00 | 0.00 | 88 | 1031.6 |
| 20260830114522 | 46 | 290 | 0.0 | 0.0 | 0.00 | 0.00 | 0.00 | 88 | 1031.2 |
| 20260830114021 | 46 | 285 | 0.0 | 0.0 | 0.00 | 0.00 | 0.00 | 88 | 1031.4 |
| 20260830113521 | 47 | 284 | 0.0 | 0.0 | 0.00 | 0.00 | 0.00 | 88 | 1031.3 |
| 20260830113017 | 47 | 278 | 0.0 | 0.0 | 0.00 | 0.00 | 0.00 | 88 | 1031.2 |
| 20260830112513 | 47 | 267 | 0.0 | 0.0 | 0.00 | 0.00 | 0.00 | 88 | 1031.4 |
| 20260830112009 | 47 | 271 | 0.0 | 0.0 | 0.00 | 0.00 | 0.00 | 87 | 1031.4 |
| 20260830111504 | 48 | 254 | 0.0 | 0.0 | 0.00 | 0.00 | 0.00 | 87 | 1031.2 |
| 20260830111000 | 48 | 268 | 0.0 | 0.0 | 0.00 | 0.00 | 0.00 | 86 | 1031.2 |
| 20260830110455 | 48 | 278 | 0.0 | 0.0 | 0.00 | 0.00 | 0.00 | 85 | 1031.3 |
| 20260830105954 | 48 | 274 | 0.0 | 0.0 | 0.00 | 0.00 | 0.00 | 85 | 1031.2 |
| 20260830105451 | 49 | 265 | 0.0 | 0.0 | 0.00 | 0.00 | 0.00 | 84 | 1031.3 |
| 20260830104947 | 49 | 264 | 0.0 | 0.0 | 0.00 | 0.00 | 0.00 | 83 | 1031.4 |
| 20260830104443 | 50 | 275 | 0.0 | 0.0 | 0.00 | 0.00 | 0.00 | 83 | 1031.0 |
| 20260830103938 | 50 | 270 | 0.0 | 0.0 | 0.00 | 0.00 | 0.00 | 83 | 1031.0 |
| 20260830103434 | 50 | 265 | 0.0 | 0.0 | 0.00 | 0.00 | 0.00 | 83 | 1031.0 |
| 20260830102931 | 51 | 269 | 0.0 | 0.0 | 0.00 | 0.00 | 0.00 | 83 | 1031.0 |
| 20260830102427 | 51 | 250 | 0.0 | 1.0 | 0.00 | 0.00 | 0.00 | 83 | 1030.9 |
| 20260830101923 | 51 | 266 | 0.0 | 0.0 | 0.00 | 0.00 | 0.00 | 83 | 1031.0 |
| 20260830101418 | 51 | 264 | 0.0 | 0.0 | 0.00 | 0.00 | 0.00 | 83 | 1030.9 |
| 20260830100918 | 51 | 254 | 1.0 | 1.0 | 0.00 | 0.00 | 0.00 | 83 | 1030.8 |
| 20260830100417 | 51 | 291 | 0.0 | 0.0 | 0.00 | 0.00 | 0.00 | 81 | 1030.8 |
| 20260830095916 | 52 | 298 | 0.0 | 0.0 | 0.00 | 0.00 | 0.00 | 81 | 1030.7 |
| 20260830095412 | 53 | 276 | 0.0 | 0.0 | 0.00 | 0.00 | 0.00 | 80 | 1030.7 |
| 20260830094908 | 53 | 296 | 0.0 | 0.0 | 0.00 | 0.00 | 0.00 | 79 | 1030.4 |
| 20260830094404 | 53 | 300 | 0.0 | 0.0 | 0.00 | 0.00 | 0.00 | 78 | 1030.4 |
| 20260830093900 | 54 | 324 | 0.0 | 0.0 | 0.00 | 0.00 | 0.00 | 77 | 1030.3 |
| 20260830093355 | 54 | 299 | 0.0 | 0.0 | 0.00 | 0.00 | 0.00 | 75 | 1030.2 |
| 20260830092849 | 55 | 2 | 1.0 | 1.0 | 0.00 | 0.00 | 0.00 | 73 | 1030.2 |
| 20260830092346 | 55 | 266 | 0.0 | 0.0 | 0.00 | 0.00 | 0.00 | 69 | 1030.1 |
| 20260830091842 | 56 | 235 | 2.0 | 2.0 | 0.00 | 0.00 | 0.00 | 69 | 1030.4 |
| 20260830091342 | 56 | 263 | 0.0 | 0.0 | 0.00 | 0.00 | 0.00 | 69 | 1030.3 |
| 20260830090841 | 57 | 260 | 0.0 | 0.0 | 0.00 | 0.00 | 0.00 | 68 | 1030.0 |
| 20260830090337 | 57 | 220 | 1.0 | 1.0 | 0.00 | 0.00 | 0.00 | 68 | 1030.1 |
| 20260830085836 | 57 | 238 | 1.0 | 1.0 | 0.00 | 0.00 | 0.00 | 68 | 1029.9 |
| 20260830085331 | 57 | 247 | 2.0 | 2.0 | 0.00 | 0.00 | 0.00 | 68 | 1029.8 |
| 20260830084827 | 57 | 237 | 1.0 | 1.0 | 0.00 | 0.00 | 0.00 | 68 | 1029.9 |
| 20260830084322 | 57 | 188 | 3.0 | 3.0 | 0.00 | 0.00 | 0.00 | 68 | 1030.0 |
| 20260830083817 | 58 | 230 | 1.0 | 1.0 | 0.00 | 0.00 | 0.00 | 68 | 1029.5 |
| 20260830083314 | 58 | 265 | 1.0 | 1.0 | 0.00 | 0.00 | 0.00 | 68 | 1029.7 |
| 20260830082813 | 58 | 198 | 1.0 | 1.0 | 0.00 | 0.00 | 0.00 | 69 | 1029.5 |
| 20260830082308 | 58 | 239 | 1.0 | 1.0 | 0.00 | 0.00 | 0.00 | 69 | 1029.3 |
| 20260830081803 | 59 | 159 | 2.0 | 2.0 | 0.00 | 0.00 | 0.00 | 69 | 1029.4 |
| 20260830081302 | 59 | 244 | 1.0 | 2.0 | 0.00 | 0.00 | 0.00 | 69 | 1029.4 |
| 20260830080757 | 59 | 244 | 2.0 | 2.0 | 0.00 | 0.00 | 0.00 | 69 | 1029.3 |
| 20260830080254 | 59 | 215 | 2.0 | 2.0 | 0.00 | 0.00 | 0.00 | 70 | 1029.3 |
| 20260830075752 | 59 | 210 | 2.0 | 2.0 | 0.00 | 0.00 | 0.00 | 70 | 1029.2 |
| 20260830075248 | 60 | 198 | 1.0 | 2.0 | 0.00 | 0.00 | 0.00 | 70 | 1029.2 |
| 20260830074743 | 60 | 209 | 2.0 | 2.0 | 0.00 | 0.00 | 0.00 | 69 | 1029.1 |
| 20260830074239 | 60 | 197 | 1.0 | 1.0 | 0.00 | 0.00 | 0.00 | 68 | 1029.1 |
| 20260830073735 | 61 | 226 | 1.0 | 2.0 | 0.00 | 0.00 | 0.00 | 67 | 1029.0 |
| 20260830073231 | 62 | 244 | 1.0 | 2.0 | 0.00 | 0.00 | 0.00 | 66 | 1029.0 |
| 20260830072730 | 62 | 214 | 1.0 | 2.0 | 0.00 | 0.00 | 0.00 | 65 | 1029.0 |
| 20260830072225 | 62 | 265 | 1.0 | 2.0 | 0.00 | 0.00 | 0.00 | 64 | 1028.9 |
| 20260830071720 | 63 | 248 | 2.0 | 2.0 | 0.00 | 0.00 | 0.00 | 64 | 1028.9 |
| 20260830071220 | 64 | 183 | 3.0 | 3.0 | 0.00 | 0.00 | 0.00 | 62 | 1028.8 |
| 20260830070714 | 64 | 183 | 2.0 | 3.0 | 0.00 | 0.00 | 0.00 | 61 | 1029.0 |
| 20260830070214 | 64 | 204 | 2.0 | 3.0 | 0.00 | 0.00 | 0.00 | 61 | 1028.9 |
| 20260830065713 | 65 | 207 | 2.0 | 2.0 | 0.00 | 0.00 | 0.00 | 60 | 1028.9 |
| 20260830065213 | 65 | 225 | 1.0 | 2.0 | 0.00 | 0.00 | 0.00 | 59 | 1028.9 |
| 20260830064712 | 65 | 194 | 2.0 | 3.0 | 0.00 | 0.00 | 0.00 | 58 | 1028.9 |
| 20260830064208 | 66 | 205 | 2.0 | 2.0 | 0.00 | 0.00 | 0.00 | 58 | 1028.9 |
| 20260830063702 | 66 | 195 | 2.0 | 2.0 | 0.00 | 0.00 | 0.00 | 57 | 1028.9 |
| 20260830063201 | 66 | 224 | 1.0 | 1.0 | 0.00 | 0.00 | 0.00 | 56 | 1028.7 |
| 20260830062656 | 66 | 239 | 3.0 | 3.0 | 0.00 | 0.00 | 0.00 | 56 | 1029.0 |
| 20260830062150 | 67 | 151 | 3.0 | 3.0 | 0.00 | 0.00 | 0.00 | 55 | 1029.0 |
| 20260830061650 | 67 | 233 | 2.0 | 2.0 | 0.00 | 0.00 | 0.00 | 54 | 1028.9 |
| 20260830061146 | 67 | 241 | 1.0 | 2.0 | 0.00 | 0.00 | 0.00 | 53 | 1028.6 |
| 20260830060643 | 67 | 215 | 1.0 | 1.0 | 0.00 | 0.00 | 0.00 | 52 | 1028.6 |
| 20260830060139 | 67 | 252 | 1.0 | 2.0 | 0.00 | 0.00 | 0.00 | 49 | 1028.9 |
| 20260830055634 | 67 | 216 | 2.0 | 2.0 | 0.00 | 0.00 | 0.00 | 45 | 1028.9 |
| 20260830055130 | 68 | 202 | 0.0 | 1.0 | 0.00 | 0.00 | 0.00 | 44 | 1029.0 |
| 20260830054625 | 68 | 202 | 3.0 | 3.0 | 0.00 | 0.00 | 0.00 | 45 | 1028.9 |
| 20260830054120 | 68 | 311 | 0.0 | 0.0 | 0.00 | 0.00 | 0.00 | 42 | 1028.8 |
| 20260830053616 | 68 | 249 | 1.0 | 1.0 | 0.00 | 0.00 | 0.00 | 42 | 1028.7 |
| 20260830053115 | 68 | 209 | 2.0 | 2.0 | 0.00 | 0.00 | 0.00 | 42 | 1029.0 |
| 20260830052611 | 68 | 251 | 3.0 | 3.0 | 0.00 | 0.00 | 0.00 | 42 | 1029.1 |
| 20260830052106 | 68 | 216 | 1.0 | 2.0 | 0.00 | 0.00 | 0.00 | 40 | 1029.1 |
| 20260830051601 | 69 | 247 | 2.0 | 2.0 | 0.00 | 0.00 | 0.00 | 40 | 1029.0 |
| 20260830051057 | 69 | 228 | 2.0 | 2.0 | 0.00 | 0.00 | 0.00 | 41 | 1028.8 |
| 20260830050555 | 69 | 279 | 0.0 | 1.0 | 0.00 | 0.00 | 0.00 | 38 | 1029.1 |
| 20260830050050 | 70 | 13 | 1.0 | 1.0 | 0.00 | 0.00 | 0.00 | 39 | 1029.1 |
| 20260830045543 | 71 | 342 | 1.0 | 2.0 | 0.00 | 0.00 | 0.00 | 38 | 1029.0 |
| 20260830045039 | 70 | 343 | 1.0 | 1.0 | 0.00 | 0.00 | 0.00 | 39 | 1029.0 |
| 20260830044538 | 70 | 157 | 3.0 | 3.0 | 0.00 | 0.00 | 0.00 | 38 | 1029.2 |
| 20260830044033 | 69 | 315 | 1.0 | 2.0 | 0.00 | 0.00 | 0.00 | 39 | 1028.9 |
| 20260830043529 | 70 | 323 | 1.0 | 1.0 | 0.00 | 0.00 | 0.00 | 37 | 1029.3 |
| 20260830043027 | 71 | 230 | 3.0 | 5.0 | 0.00 | 0.00 | 0.00 | 36 | 1029.3 |
| 20260830042526 | 70 | 318 | 1.0 | 1.0 | 0.00 | 0.00 | 0.00 | 37 | 1029.1 |
| 20260830042021 | 71 | 331 | 2.0 | 2.0 | 0.00 | 0.00 | 0.00 | 36 | 1029.2 |
| 20260830041520 | 71 | 291 | 1.0 | 1.0 | 0.00 | 0.00 | 0.00 | 38 | 1029.4 |
| 20260830041019 | 71 | 74 | 1.0 | 2.0 | 0.00 | 0.00 | 0.00 | 38 | 1029.2 |
| 20260830040515 | 71 | 252 | 1.0 | 2.0 | 0.00 | 0.00 | 0.00 | 37 | 1029.7 |
| 20260830040010 | 71 | 216 | 2.0 | 2.0 | 0.00 | 0.00 | 0.00 | 38 | 1029.4 |
| 20260830035508 | 71 | 314 | 1.0 | 1.0 | 0.00 | 0.00 | 0.00 | 38 | 1029.5 |
| 20260830035004 | 71 | 318 | 0.0 | 1.0 | 0.00 | 0.00 | 0.00 | 39 | 1029.5 |
| 20260830034500 | 70 | 304 | 0.0 | 1.0 | 0.00 | 0.00 | 0.00 | 38 | 1029.7 |
| 20260830033959 | 69 | 240 | 1.0 | 2.0 | 0.00 | 0.00 | 0.00 | 40 | 1029.7 |
| 20260830033454 | 70 | 265 | 2.0 | 3.0 | 0.00 | 0.00 | 0.00 | 39 | 1029.7 |
| 20260830032949 | 71 | 322 | 1.0 | 1.0 | 0.00 | 0.00 | 0.00 | 44 | 1029.5 |
| 20260830032448 | 71 | 327 | 1.0 | 1.0 | 0.00 | 0.00 | 0.00 | 43 | 1029.7 |
| 20260830031944 | 70 | 336 | 0.0 | 0.0 | 0.00 | 0.00 | 0.00 | 44 | 1030.0 |
| 20260830031439 | 70 | 296 | 1.0 | 1.0 | 0.00 | 0.00 | 0.00 | 45 | 1030.1 |
| 20260830030934 | 69 | 276 | 1.0 | 1.0 | 0.00 | 0.00 | 0.00 | 46 | 1029.9 |
| 20260830030430 | 71 | 239 | 1.0 | 2.0 | 0.00 | 0.00 | 0.00 | 45 | 1030.1 |
| 20260830025930 | 70 | 338 | 0.0 | 0.0 | 0.00 | 0.00 | 0.00 | 46 | 1030.1 |
| 20260830025424 | 70 | 227 | 2.0 | 2.0 | 0.00 | 0.00 | 0.00 | 46 | 1030.3 |
| 20260830024923 | 70 | 327 | 1.0 | 1.0 | 0.00 | 0.00 | 0.00 | 46 | 1030.4 |
| 20260830024419 | 70 | 317 | 0.0 | 1.0 | 0.00 | 0.00 | 0.00 | 46 | 1030.3 |
| 20260830023916 | 69 | 323 | 0.0 | 0.0 | 0.00 | 0.00 | 0.00 | 46 | 1030.3 |
| 20260830023415 | 68 | 241 | 1.0 | 2.0 | 0.00 | 0.00 | 0.00 | 48 | 1030.6 |
| 20260830022914 | 68 | 221 | 2.0 | 3.0 | 0.00 | 0.00 | 0.00 | 47 | 1030.6 |
| 20260830022409 | 68 | 226 | 3.0 | 3.0 | 0.00 | 0.00 | 0.00 | 46 | 1030.6 |